SBBE Airport Information

Runway Information
Runway 6 Length 9186 ft width 148 ft
Elevation 0 ft Threshold 0 ft Heading 0
Runway 24 Length 9186 ft Width 148 ft
Elevation 0 ft Threshold 0 ft Heading 0
Runway 7 Length 108 ft width 108 ft
Elevation 0 ft Threshold 0 ft Heading 0
Runway 20 Length 108 ft Width 108 ft
Elevation 0 ft Threshold 0 ft Heading 0
Airport Frequencies
Type APP Name BELEM APP Frequency 119.05 MHZ
Type ATIS Name BELEM ATIS Frequency 127.6 MHZ
Type GND Name GND Frequency 121.9 MHZ
Type OPS Name BELEM OPS Frequency 122.5 MHZ
Type TWR Name BELEM TWR Frequency 118.7 MHZ
Airport Navaids
Type VOR-DME Name Belem Frequency 117300 KHZ
Type NDB Name Belem Frequency 250 KHZ
Type NDB Name Valde Frequency 395 KHZ
Airport Weather Information & NOTAM
ADDS - METARS form results

(1010 UTC 18 August 2018)
 
METAR text: SBBE 181000Z 09005KT 6000 NSC 24/23 Q1015
Conditions at: SBBE (BELEM/VAL DE CAE, BR) observed 1000 UTC 18 August 2018
Temperature: 24.0°C (75°F)
Dewpoint: 23.0°C (73°F) [RH = 94%]
Pressure (altimeter): 29.97 inches Hg (1015.0 mb)
Winds: from the E (90 degrees) at 6 MPH (5 knots; 2.6 m/s)
Visibility: 4 miles (6 km)
Ceiling: at least 12,000 feet AGL
Clouds: sky clear below 12,000 feet AGL
Weather: no significant weather observed at this time